Location: Colonia Mina de C?rbuni
(46.1667°N, 22.7167°E)
Time: 22:42:26
(UTC+00:00)

Tiros 1 - Pass Details

Date: 20 April 2024
Orbit: 624 x 657 km, 48.4° (Epoch: 20 May)

Event Time Altitude Azimuth Distance (km) Brightness Sun altitude
Rises 00:08:03 0° 255° (WSW) 2,922 - -28.0°
Reaches altitude 10° 00:10:23 10° 257° (WSW) 2,010 - -27.8°
Maximum altitude 00:15:01 82° 345° (NNW) 638 - -27.4°
Exits shadow 00:16:04 53° 65° (ENE) 773 7.7 -27.3°
Drops below altitude 10° 00:19:37 10° 73° (ENE) 2,000 10.2 -27.0°
Sets 00:21:56 0° 75° (ENE) 2,905 11.2 -26.8°
